Regional Weather Roundup
Issued by NWS

Home | Current Version | Previous Version | Graphics & Text | Print | Product List | Glossary On
Versions: 1 2 3 4 5 6 7 8 9 10 11 12 13 14 15 16 17 18 19 20 21 22 23 24 25 26 27 28 29 30 31 32 33 34 35 36 37 38 39 40 41 42 43 44 45 46 47 48 49 50
000
ASUS43 KFSD 011410
RWRSD

WEATHER ROUNDUP FOR SOUTH DAKOTA
NATIONAL WEATHER SERVICE SIOUX FALLS SD
900 AM CDT SAT AUG 01 2015

NOTE: "FAIR" INDICATES FEW OR NO CLOUDS BELOW 12,000 FEET WITH NO
SIGNIFICANT WEATHER AND/OR OBSTRUCTIONS TO VISIBILITY.


SDZ001>005-009-010-012>017-011500-
NORTHWEST AND NORTH CENTRAL SOUTH DAKOTA

CITY           SKY/WX    TMP DP  RH WIND       PRES   REMARKS
BUFFALO          N/A     72  54  53 W7        29.93S
FAITH            N/A     75  57  53 SW15      29.95R
MOBRIDGE       MOSUNNY   72  63  73 SE8       29.91S
$$

SDZ012>016-024>037-041>051-057-063-072>074-011500-
SOUTHWEST AND SOUTH CENTRAL SOUTH DAKOTA

CITY           SKY/WX    TMP DP  RH WIND       PRES   REMARKS
RAPID CTY ARPT MOSUNNY   72  58  61 S6        30.01S
PIERRE         MOSUNNY   74  61  63 SE5       29.92F
CUSTER         SUNNY     72  53  51 W5        30.18S
ELLSWORTH AFB  MOSUNNY   68  60  74 NW7       30.01R
PHILIP         MOSUNNY   74  64  71 S22G31    29.95S
PINE RIDGE     MOSUNNY   67  59  75 E15       30.08R
SPEARFISH      FAIR      72  54  53 S3        30.08F
WINNER         LGT RAIN  71  57  61 SW24G31   30.03R
$$

SDZ004>011-016>023-039-040-011500-
NORTHEAST SOUTH DAKOTA

CITY           SKY/WX    TMP DP  RH WIND       PRES   REMARKS
ABERDEEN       SUNNY     68  60  75 SE5       29.95F
WATERTOWN      MOSUNNY   71  63  75 SE3       29.99F
BROOKINGS      SUNNY     68  63  83 SE3       30.03S
SISSETON         N/A     72  61  68 SW5       29.96F
$$

SDZ017-020-022-023-036>040-048>070-011500-
SOUTHEAST SOUTH DAKOTA

CITY           SKY/WX    TMP DP  RH WIND       PRES   REMARKS
SIOUX FALLS    PTSUNNY   75  68  78 SW7       30.02S
HURON          MOSUNNY   71  67  87 SE8       29.96F
CHAMBERLAIN    CLOUDY    69  64  83 SE7       29.96F
MITCHELL       CLOUDY    69  67  93 SE9       29.99S
YANKTON        PTSUNNY   73  66  78 SW7       30.01S
$$

ABBREVIATIONS USED IN REMARKS
   TC - TEMPERATURE IN CELSIUS
  WCI - WIND CHILL INDEX
   HX - HEAT INDEX
  VSB - VISIBILITY




USA.gov is the U.S. government's official web portal to all federal, state and local government web resources and services.